Location: Dammartin
(48.9032°N, 1.6195°E)
Time: 21:20:49
(UTC+00:00)

YUBILEINY - Pass Details

Date: 11 December 2023
Orbit: 1479 x 1508 km, 82.5° (Epoch: 04 March)

Event Time Altitude Azimuth Distance (km) Brightness Sun altitude
Rises 22:19:45 0° 338° (NNW) 4,623 ? -58.9°
Reaches altitude 10° 22:26:07 10° 304° (NW) 3,630 ? -59.6°
Maximum altitude 22:27:35 11° 294° (WNW) 3,585 ? -59.8°
Enters shadow 22:28:17 10° 289° (WNW) 3,593 ? -59.8°
